Stündliche Wetter Otradnoe

Heute, 10 April, Samstag

Zeit Temperatur Niederschläge Wind Luftdruck Luftfeuchtigkeit
00:00 0°C° 0 mm 4 m/S 747 mmHg 71%
01:00 0°C° 0 mm 4 m/S 747 mmHg 72%
02:00 0°C° 0 mm 4 m/S 747 mmHg 75%
03:00 0°C° 0 mm 4 m/S 747 mmHg 76%
04:00 -1°C° 0 mm 4 m/S 747 mmHg 78%
05:00 -1°C° 0 mm 4 m/S 747 mmHg 79%
06:00 0°C° 0 mm 5 m/S 747 mmHg 75%
07:00 +1°C° 0 mm 5 m/S 747 mmHg 70%
08:00 +2°C° 0 mm 5 m/S 747 mmHg 66%
09:00 +4°C° 0 mm 6 m/S 747 mmHg 61%
10:00 +5°C° 0 mm 6 m/S 747 mmHg 56%
11:00 +8°C° 0 mm 6 m/S 747 mmHg 51%
12:00 +8°C° 0 mm 6 m/S 746 mmHg 49%
13:00 +9°C° 0 mm 6 m/S 746 mmHg 47%
14:00 +9°C° 0 mm 6 m/S 746 mmHg 45%
15:00 +9°C° 0 mm 6 m/S 746 mmHg 47%
16:00 +9°C° 0 mm 6 m/S 746 mmHg 49%
17:00 +8°C° 0 mm 6 m/S 746 mmHg 50%
18:00 +7°C° 0 mm 5 m/S 746 mmHg 53%
19:00 +7°C° 0 mm 5 m/S 746 mmHg 57%
20:00 +6°C° 0 mm 5 m/S 746 mmHg 60%
21:00 +5°C° 0 mm 5 m/S 747 mmHg 62%
22:00 +5°C° 0 mm 5 m/S 747 mmHg 65%
23:00 +4°C° 0 mm 4 m/S 747 mmHg 67%

Morgen, 11 April, Sonntag

Zeit Temperatur Niederschläge Wind Luftdruck Luftfeuchtigkeit
00:00 +4°C° 0 mm 4 m/S 747 mmHg 72%
01:00 +3°C° 0 mm 3 m/S 748 mmHg 76%
02:00 +4°C° 0 mm 2 m/S 748 mmHg 81%
03:00 +4°C° 0 mm 1 m/S 749 mmHg 83%
04:00 +4°C° 0 mm 1 m/S 749 mmHg 85%
05:00 +4°C° 0 mm 1 m/S 749 mmHg 87%
06:00 +5°C° 0.1 mm 1 m/S 750 mmHg 84%
07:00 +5°C° 0.1 mm 1 m/S 750 mmHg 82%
08:00 +6°C° 0.1 mm 1 m/S 751 mmHg 79%
09:00 +7°C° 0 mm 1 m/S 751 mmHg 78%
10:00 +7°C° 0 mm 1 m/S 751 mmHg 76%
11:00 +8°C° 0 mm 1 m/S 752 mmHg 74%
12:00 +9°C° 0 mm 1 m/S 752 mmHg 71%
13:00 +10°C° 0 mm 1 m/S 752 mmHg 68%
14:00 +11°C° 0 mm 1 m/S 752 mmHg 65%
15:00 +10°C° 0 mm 1 m/S 753 mmHg 68%
16:00 +10°C° 0 mm 1 m/S 753 mmHg 72%
17:00 +8°C° 0 mm 2 m/S 753 mmHg 75%
18:00 +8°C° 0 mm 2 m/S 753 mmHg 78%
19:00 +7°C° 0 mm 2 m/S 753 mmHg 80%
20:00 +7°C° 0 mm 2 m/S 754 mmHg 83%
21:00 +7°C° 0 mm 2 m/S 754 mmHg 84%
22:00 +8°C° 0 mm 1 m/S 754 mmHg 84%
23:00 +7°C° 0 mm 1 m/S 754 mmHg 85%

übermorgen, 12 April, Montag

Zeit Temperatur Niederschläge Wind Luftdruck Luftfeuchtigkeit
00:00 +7°C° 0 mm 1 m/S 754 mmHg 85%
01:00 +6°C° 0 mm 2 m/S 754 mmHg 86%
02:00 +6°C° 0 mm 2 m/S 754 mmHg 86%
03:00 +5°C° 0 mm 2 m/S 754 mmHg 86%
04:00 +5°C° 0 mm 2 m/S 754 mmHg 87%
05:00 +6°C° 0 mm 1 m/S 754 mmHg 87%
06:00 +6°C° 0 mm 2 m/S 754 mmHg 79%
07:00 +8°C° 0 mm 2 m/S 754 mmHg 72%
08:00 +9°C° 0 mm 2 m/S 754 mmHg 64%
09:00 +11°C° 0 mm 3 m/S 754 mmHg 58%
10:00 +12°C° 0 mm 3 m/S 754 mmHg 52%
11:00 +14°C° 0 mm 3 m/S 754 mmHg 46%
12:00 +14°C° 0 mm 3 m/S 753 mmHg 43%
13:00 +15°C° 0 mm 4 m/S 753 mmHg 41%
14:00 +15°C° 0 mm 4 m/S 752 mmHg 38%
15:00 +14°C° 0 mm 4 m/S 752 mmHg 42%
16:00 +13°C° 0 mm 3 m/S 751 mmHg 45%
17:00 +12°C° 0 mm 3 m/S 751 mmHg 49%
18:00 +11°C° 0 mm 3 m/S 751 mmHg 58%
19:00 +10°C° 0 mm 3 m/S 751 mmHg 66%
20:00 +9°C° 0 mm 3 m/S 750 mmHg 75%
21:00 +8°C° 0 mm 3 m/S 750 mmHg 79%
22:00 +8°C° 0 mm 2 m/S 750 mmHg 83%
23:00 +8°C° 0 mm 2 m/S 750 mmHg 87%

13 April, Dienstag

Zeit Temperatur Niederschläge Wind Luftdruck Luftfeuchtigkeit
00:00 +8°C° 0 mm 2 m/S 750 mmHg 90%
01:00 +8°C° 0 mm 1 m/S 749 mmHg 92%
02:00 +8°C° 0 mm 1 m/S 749 mmHg 95%
03:00 +8°C° 0 mm 1 m/S 749 mmHg 95%
04:00 +8°C° 0 mm 1 m/S 749 mmHg 95%
05:00 +8°C° 0 mm 1 m/S 748 mmHg 95%
06:00 +9°C° 0 mm 1 m/S 748 mmHg 92%
07:00 +10°C° 0 mm 1 m/S 748 mmHg 88%
08:00 +11°C° 0 mm 1 m/S 748 mmHg 84%
09:00 +12°C° 0 mm 1 m/S 748 mmHg 79%
10:00 +13°C° 0 mm 2 m/S 748 mmHg 75%
11:00 +13°C° 0 mm 3 m/S 748 mmHg 70%
12:00 +14°C° 0 mm 2 m/S 747 mmHg 75%
13:00 +13°C° 0 mm 2 m/S 747 mmHg 79%
14:00 +12°C° 0 mm 1 m/S 747 mmHg 84%
15:00 +12°C° 0 mm 1 m/S 747 mmHg 84%
16:00 +12°C° 0 mm 1 m/S 747 mmHg 85%
17:00 +12°C° 0 mm 1 m/S 747 mmHg 85%
18:00 +12°C° 0.1 mm 1 m/S 747 mmHg 88%
19:00 +11°C° 0.1 mm 1 m/S 747 mmHg 90%
20:00 +11°C° 0.1 mm 1 m/S 746 mmHg 93%
21:00 +11°C° 0.2 mm 1 m/S 746 mmHg 94%
22:00 +10°C° 0.2 mm 2 m/S 746 mmHg 96%
23:00 +10°C° 0.2 mm 2 m/S 746 mmHg 97%

14 April, Mittwoch

Zeit Temperatur Niederschläge Wind Luftdruck Luftfeuchtigkeit
00:00 +10°C° 0.3 mm 2 m/S 745 mmHg 97%
01:00 +10°C° 0.3 mm 2 m/S 745 mmHg 96%
02:00 +10°C° 0.3 mm 3 m/S 745 mmHg 96%
03:00 +10°C° 0.3 mm 3 m/S 745 mmHg 96%
04:00 +9°C° 0.3 mm 2 m/S 745 mmHg 97%
05:00 +9°C° 0.3 mm 2 m/S 745 mmHg 97%
06:00 +9°C° 0.5 mm 2 m/S 745 mmHg 96%
07:00 +9°C° 0.5 mm 2 m/S 745 mmHg 96%
08:00 +9°C° 0.5 mm 2 m/S 745 mmHg 95%
09:00 +12°C° 0.1 mm 2 m/S 745 mmHg 88%
10:00 +14°C° 0.1 mm 2 m/S 744 mmHg 80%
11:00 +14°C° 0.1 mm 3 m/S 744 mmHg 73%
12:00 +14°C° 0.1 mm 3 m/S 744 mmHg 72%
13:00 +14°C° 0.1 mm 3 m/S 744 mmHg 71%
14:00 +14°C° 0.1 mm 3 m/S 744 mmHg 70%
15:00 +15°C° 0.1 mm 2 m/S 744 mmHg 73%
16:00 +14°C° 0.1 mm 2 m/S 744 mmHg 76%
17:00 +14°C° 0.1 mm 2 m/S 743 mmHg 79%
18:00 +13°C° 0 mm 2 m/S 744 mmHg 82%
19:00 +12°C° 0 mm 2 m/S 744 mmHg 85%
20:00 +11°C° 0 mm 1 m/S 744 mmHg 87%
21:00 +11°C° 0 mm 1 m/S 744 mmHg 88%
22:00 +10°C° 0 mm 1 m/S 744 mmHg 89%
23:00 +10°C° 0 mm 1 m/S 744 mmHg 89%

15 April, Donnerstag

Zeit Temperatur Niederschläge Wind Luftdruck Luftfeuchtigkeit
00:00 +9°C° 0 mm 1 m/S 744 mmHg 90%
01:00 +9°C° 0 mm 1 m/S 744 mmHg 90%
02:00 +9°C° 0 mm 1 m/S 744 mmHg 91%
03:00 +9°C° 0 mm 1 m/S 744 mmHg 90%
04:00 +9°C° 0 mm 1 m/S 744 mmHg 89%
05:00 +8°C° 0 mm 0 m/S 744 mmHg 89%
06:00 +8°C° 0 mm 0 m/S 744 mmHg 86%
07:00 +9°C° 0 mm 0 m/S 744 mmHg 84%
08:00 +10°C° 0 mm 0 m/S 744 mmHg 81%
09:00 +12°C° 0 mm 1 m/S 744 mmHg 78%
10:00 +12°C° 0 mm 2 m/S 744 mmHg 75%
11:00 +13°C° 0 mm 2 m/S 744 mmHg 72%
12:00 +12°C° 0 mm 3 m/S 744 mmHg 73%
13:00 +11°C° 0 mm 4 m/S 744 mmHg 74%
14:00 +11°C° 0 mm 4 m/S 744 mmHg 75%
15:00 +8°C° 0 mm 5 m/S 744 mmHg 78%
16:00 +7°C° 0 mm 5 m/S 744 mmHg 81%
17:00 +5°C° 0 mm 5 m/S 745 mmHg 84%
18:00 +3°C° 0 mm 5 m/S 745 mmHg 85%
19:00 +2°C° 0 mm 5 m/S 745 mmHg 86%
20:00 +2°C° 0 mm 5 m/S 745 mmHg 86%
21:00 +1°C° 0 mm 5 m/S 745 mmHg 83%
22:00 +1°C° 0 mm 5 m/S 745 mmHg 79%
23:00 +1°C° 0 mm 5 m/S 745 mmHg 76%
Mehr zeigen

Wir brauchen deine Erlaubnis

Meteoprog und unser Service Anbieter werden persönliche Daten aufbewahren, so wie Cookies, Geräte Bezeichnung oder ähnliche Technologien von deinem Gerät und Prozess, so wie Persönliche Daten Inhalte und Werbungen, genauso wie social Media und den Verkehr zu analysieren.

  • Aufbewahrung und/oder Zugang zu deiner Geräte Informationen.

    Cookies, Geräte Bezeichnung oder andere Informationen, können aufbewahrt oder Zugang zu deinem Gerät erhalten, für den Grund, der oben angegeben wird.

  • Personalisierte Werbung und Inhalte, Messungen, Einblick in das Publikum und Produkt Entwicklung.

    Werbungen und Inhalte können personalisiert werden, basierend auf ein Profil. Mehr Daten können besser personalisierte Werbungen und Inhalte hinzufügen. Werbung und Inhalte können gezeigt und gemessen werden. Einblicke über das Publikum, welche die Werbung gesehen haben und den Inhalt, können abgeleitet werden. So wie Daten können genutzt werden, um es zu verbessern oder die Benutzer Erfahrung zu verbessern das System und die Software.

Wenn du “Ich stimme zu” klickst, erlaubst du uns, die Cookies zu benutzen die Geräte Bezeichnung, den Web oder ähnliche Technologien zu benutzen. Deine Settings, können in deinem Gerät bei deinem Browser geändert werden.

Für den bestimmten Zweck, berechtigten Interessen beruhen darauf, mehr als auf den Inhalt. Du kannst mehr darüber in unseren Privaten und Cookie Politik lesen.